Temp
26 26 25 27 32 32 29 29 28 28 28 28 27 27 27 27 27 26 22 21 21 22 21 21 22 23 23 23 23 23 22 22 22 22 22 21 21 21 21 21 21 21 20 20 20 20 20 20 19
27 26 26 30 32 31 30 29 29 28 28 27 27 27 27 26 26 25 24 21 21 21 21 21 22 23 23 23 23 23 22 22 22 22 22 21 21 21 21 21 21 21 20 20 19 19 20 20 20
27 26 32 32 30 31 30 29 28 27 28 28 28 28 28 27 26 25 24 22 21 21 21 21 22 23 23 23 23 22 22 22 22 22 21 21 21 21 22 22 21 21 21 21 21 21 21 21 20
26 29 31 32 31 30 30 29 28 28 28 29 28 27 28 26 26 25 23 22 22 22 21 22 22 22 22 23 23 22 22 22 22 22 22 22 22 22 22 22 22 21 21 21 21 21 21 21 21
28 31 32 31 30 29 29 30 29 29 28 28 27 27 27 26 24 23 22 22 22 21 21 21 22 22 22 22 22 22 22 22 22 22 22 22 22 22 22 22 22 22 22 22 22 21 22 22 21
33 30 32 31 30 30 29 29 29 29 28 28 28 28 27 24 24 23 23 22 22 22 21 21 23 23 22 22 22 22 22 22 22 22 22 22 22 23 22 22 22 22 22 22 22 22 22 22 22
32 32 30 30 30 30 29 29 29 29 28 28 28 28 27 26 24 23 23 23 22 22 22 22 21 22 22 23 22 22 22 22 22 22 22 22 23 23 23 23 23 23 23 22 22 22 22 22 22
31 31 29 29 30 31 30 29 29 29 28 28 28 29 28 27 24 23 23 23 22 22 23 22 23 22 21 22 23 23 22 22 22 22 23 23 23 23 23 23 23 23 23 22 22 22 22 22 22
29 32 32 32 30 32 29 29 28 29 29 29 29 28 29 25 24 24 23 23 23 22 22 22 22 22 21 22 23 23 23 22 22 23 23 22 23 22 22 22 22 22 22 22 22 22 22 22 22
32 32 32 32 32 32 30 31 29 29 29 29 28 27 26 25 24 24 23 24 24 24 22 21 21 21 21 21 22 23 23 22 22 23 23 22 22 22 22 22 22 22 21 22 22 22 22 22 22
30 33 31 32 32 31 30 30 30 30 29 30 29 29 27 26 25 26 25 25 24 23 22 23 22 23 22 21 21 21 22 22 22 23 22 22 22 22 21 21 21 21 21 20 20 20 21 21 21
31 31 31 33 30 30 30 31 30 31 32 31 30 29 28 27 26 25 25 25 24 23 23 22 23 23 23 22 22 22 21 22 22 22 22 22 22 22 21 20 20 20 19 20 20 19 19 20 21
30 31 31 31 29 30 31 30 31 30 31 30 30 28 28 28 26 25 23 23 23 23 22 22 22 23 22 22 22 22 22 22 22 22 22 22 21 21 21 20 20 19 18 18 18 18 18 18 18
31 31 31 31 30 30 31 30 29 32 30 29 28 28 28 27 25 24 23 23 23 22 22 21 22 22 22 22 22 23 22 22 22 22 21 21 20 20 19 18 18 17 16 16 17 17 17 17 17
31 33 32 30 30 30 31 29 29 32 29 29 28 28 27 26 24 25 22 23 23 22 22 21 21 22 22 22 22 22 22 22 22 21 21 20 20 20 19 17 17 16 16 16 16 16 16 17 17
32 31 33 31 31 29 31 33 33 30 29 29 28 27 26 25 25 22 22 22 22 21 22 22 22 22 22 22 22 22 22 21 21 21 20 19 19 18 17 16 16 15 15 15 15 16 16 16 17
32 32 32 32 30 31 31 33 30 28 29 29 27 27 26 25 23 21 21 22 22 21 22 22 22 22 22 22 22 22 21 21 20 20 19 19 18 17 16 15 15 14 14 14 14 14 14 15 16
32 32 31 32 31 31 31 30 29 26 28 27 26 26 26 26 25 21 21 21 21 21 22 22 21 22 21 21 21 21 20 20 19 19 18 17 16 15 15 14 14 13 14 14 13 12 13 14 14
31 31 32 31 30 29 27 28 27 25 25 25 26 25 26 26 24 21 20 20 21 21 22 22 21 21 21 20 19 19 20 17 17 18 17 16 15 15 14 14 13 12 12 12 12 12 13 14 14
31 31 31 31 29 30 28 28 26 26 25 24 25 25 26 26 25 23 22 21 20 20 20 21 21 21 21 20 20 19 19 17 17 18 17 16 16 15 13 13 13 12 12 12 11 11 12 13 13
31 31 31 31 29 28 29 29 28 27 26 25 25 25 25 25 26 24 23 22 21 20 20 20 21 21 21 20 19 18 18 18 18 17 15 15 15 15 13 12 11 11 11 12 11 11 11 12 13
31 30 30 29 29 30 27 30 28 27 28 26 26 26 26 26 26 24 23 23 22 21 20 21 21 21 20 19 18 18 17 17 16 15 15 15 15 14 13 11 11 11 11 11 10 11 10 10 11
31 28 28 27 28 29 28 29 28 27 29 29 28 27 27 27 26 26 23 22 22 21 21 20 20 19 18 18 18 17 16 16 15 15 14 14 13 12 12 11 11 10 10 10 9 9 9 10 10
28 28 27 26 28 29 26 27 29 28 29 29 29 29 28 28 26 24 22 21 21 21 20 19 18 17 18 18 18 17 17 16 15 15 14 14 13 12 11 11 10 10 10 9 9 9 9 9 8
30 30 30 29 29 28 26 27 28 28 28 28 29 30 30 28 26 25 24 24 23 21 20 19 17 18 18 18 18 17 16 16 15 13 13 12 12 11 11 10 9 9 8 9 9 9 8 9 8
28 29 29 27 27 28 27 28 29 27 27 27 27 28 27 27 27 25 24 23 22 20 19 18 18 18 18 18 17 17 17 14 14 13 12 12 11 11 10 9 8 8 8 8 8 8 8 8 8
28 29 26 25 23 26 27 28 28 27 28 27 28 28 27 26 25 25 23 22 21 19 18 18 18 17 18 18 17 16 16 14 13 12 11 11 10 10 9 8 8 8 8 8 7 8 8 7 7
29 26 28 27 26 26 27 26 29 29 29 28 28 27 26 26 25 24 23 21 19 19 18 18 19 18 18 18 16 15 15 13 12 11 10 10 10 9 9 8 7 8 8 7 7 7 7 7 7
28 28 25 26 25 27 26 28 29 29 28 27 28 26 27 25 25 25 23 20 19 19 19 18 17 17 16 15 14 13 12 12 11 10 10 10 9 9 8 8 7 7 7 7 7 7 7 7 7
28 27 26 27 26 24 24 27 26 26 26 25 25 27 26 24 24 23 22 21 20 19 19 18 16 16 15 14 13 12 11 11 10 10 10 9 9 8 7 8 7 7 7 7 7 8 8 7 7
Height
799 800 802 801 814 814 835 834 826 831 830 823 824 827 830 828 833 847 834 836 837 840 844 846 847 849 850 851 851 851 852 852 852 852 852 852 851 850 850 850 849 849 848 848 847 846 846 844 843
800 802 803 801 821 837 838 827 830 827 824 823 824 825 828 833 827 830 834 836 838 839 842 845 846 848 850 851 852 852 853 853 853 853 853 852 852 851 850 850 849 848 848 847 847 846 845 845 843
801 802 802 810 828 836 837 826 827 826 822 823 825 823 826 830 829 830 833 835 838 841 843 845 847 849 851 852 853 853 853 853 854 853 853 853 853 852 851 850 849 848 847 846 845 845 844 843 842
802 803 805 819 833 829 826 823 823 826 823 822 825 832 827 830 830 832 833 836 839 842 844 846 848 850 851 853 853 854 854 854 854 854 854 853 853 852 851 850 849 849 848 846 845 844 843 842 841
801 802 820 830 835 828 824 818 820 825 826 827 829 836 832 831 831 832 833 836 838 841 844 847 848 850 851 852 853 854 854 854 854 853 854 854 853 852 851 851 849 848 848 846 845 844 842 841 840
804 810 829 836 832 826 823 819 819 824 826 829 832 832 832 832 832 832 833 836 838 840 843 846 847 849 851 851 852 853 854 855 855 854 853 853 852 852 852 851 850 848 848 847 845 843 842 840 839
810 819 834 834 833 829 825 821 822 824 827 831 828 835 832 832 829 832 835 838 840 842 843 845 847 849 851 851 852 853 854 854 855 855 854 854 853 852 853 852 850 848 848 847 844 843 842 841 840
808 815 835 832 833 826 818 821 819 823 829 828 829 834 833 826 834 836 838 840 841 842 844 845 847 849 850 851 852 853 853 854 854 854 854 855 854 852 853 852 851 851 848 848 845 843 842 841 840
807 821 829 824 830 816 816 821 821 819 824 826 826 826 822 827 832 835 838 840 842 844 845 846 848 850 851 852 852 853 854 855 854 853 854 854 853 852 852 852 851 850 848 846 845 843 842 840 839
809 823 820 808 806 810 814 814 819 823 826 828 826 825 825 828 831 833 837 840 843 844 846 848 849 851 852 852 852 853 853 855 854 853 853 853 852 852 851 851 850 849 847 845 843 841 840 838 837
813 816 810 805 803 804 811 815 815 819 828 819 820 821 823 827 831 834 838 841 843 845 847 848 849 850 852 853 853 853 854 853 853 853 852 852 852 850 850 849 849 847 845 843 841 839 838 837 835
816 805 806 800 804 807 812 808 816 813 811 809 815 819 823 825 830 836 838 841 844 846 848 849 849 850 851 852 852 852 853 853 852 852 852 851 851 849 848 847 846 844 842 840 838 836 833 831 830
814 807 804 801 805 809 808 810 813 812 807 811 813 820 823 826 832 837 840 842 844 845 846 848 849 850 850 849 850 850 852 852 852 852 851 850 849 848 847 846 844 841 839 838 835 833 830 829 827
805 807 804 803 805 807 812 817 818 805 808 812 815 819 824 827 832 836 839 841 843 844 845 847 847 847 848 848 849 850 851 851 852 851 849 848 847 846 846 844 842 840 838 836 833 830 828 826 824
802 807 807 810 809 813 809 826 819 804 808 812 814 819 826 830 832 835 839 841 843 844 844 845 847 848 848 848 850 850 851 850 850 848 847 846 846 845 844 842 841 838 835 833 831 828 825 823 821
808 811 819 813 811 816 812 821 804 809 810 811 815 821 827 831 834 838 838 839 841 842 843 846 847 848 848 849 850 851 850 849 848 846 846 845 845 844 842 841 839 836 833 830 828 825 822 820 818
815 827 826 821 814 814 817 818 813 810 811 814 819 823 826 832 836 837 839 840 841 842 843 845 846 848 848 848 849 850 849 847 847 845 845 845 844 842 841 840 838 835 832 829 826 822 820 817 814
828 827 826 826 821 817 823 823 817 818 815 820 824 825 827 831 834 838 839 840 840 841 842 844 845 846 847 847 848 848 846 845 845 844 844 844 842 840 839 838 836 834 831 827 824 821 817 814 811
821 824 828 823 820 826 836 831 826 824 822 824 825 828 828 831 835 838 839 840 840 840 841 843 844 844 845 845 846 846 845 845 844 844 843 841 839 838 836 836 834 832 829 825 822 818 814 810 808
820 827 829 824 822 821 834 833 829 825 825 826 826 827 828 830 832 835 836 838 839 839 840 840 841 842 843 844 844 845 843 843 843 842 839 838 835 833 832 831 830 828 826 823 820 817 813 809 807
826 828 830 830 828 828 831 832 832 826 823 824 825 825 827 829 828 830 832 835 837 838 838 839 840 841 842 843 843 843 842 841 840 838 837 834 832 831 830 828 826 824 822 818 817 814 811 806 804
832 822 826 830 834 843 840 848 835 834 826 825 824 824 823 823 823 826 830 832 834 836 836 836 837 838 839 840 840 839 840 839 838 836 834 832 830 829 828 826 824 821 817 814 812 810 807 804 802
829 826 832 836 839 840 845 845 838 836 831 825 821 822 822 819 821 824 829 830 831 832 832 834 835 837 838 839 837 838 838 838 836 834 831 829 827 826 824 822 820 817 814 811 807 804 802 800 799
824 829 837 840 840 851 856 854 841 836 831 827 822 820 818 816 822 825 827 828 829 830 832 834 835 837 838 837 836 836 836 835 833 831 829 828 827 824 822 819 815 811 809 806 803 800 798 796 795
821 831 849 854 856 861 855 852 840 830 828 825 821 817 813 819 822 823 824 826 828 830 831 832 833 835 835 835 835 835 834 831 829 828 827 825 823 821 818 815 811 807 804 802 799 796 794 793 792
837 836 853 879 872 860 850 855 838 828 824 823 820 816 817 819 819 822 823 826 828 829 830 831 832 833 834 834 833 832 830 829 828 827 825 823 820 817 814 811 807 803 800 797 795 792 789 788 787
837 842 846 864 877 867 856 844 829 827 824 822 817 814 818 820 821 822 824 826 828 829 831 831 831 832 832 832 830 829 828 827 826 824 821 820 818 814 811 807 803 799 796 793 790 787 785 784 782
829 840 851 853 873 877 858 858 841 828 822 817 815 816 819 819 820 822 824 826 827 827 828 828 828 828 828 828 828 828 826 825 824 821 818 816 813 810 807 803 799 795 793 789 786 783 781 779 777
838 841 855 855 863 868 870 851 821 821 818 819 813 817 815 818 819 821 823 825 825 824 826 825 826 827 827 826 826 826 825 824 821 819 816 813 810 807 803 798 795 792 789 786 783 780 778 776 775
832 843 845 853 866 869 870 853 823 823 820 820 816 812 813 819 820 821 821 823 823 822 822 824 824 824 825 825 826 825 823 820 818 814 812 809 806 803 799 795 791 789 786 783 780 778 776 774 772
Wind_Speed
11 11 8 1 2 4 4 5 2 5 3 1 6 1 3 2 1 2 2 8 12 18 16 14 12 11 10 9 9 9 9 9 9 9 9 9 9 9 8 8 8 8 8 8 8 8 7 7 7
13 12 2 1 3 4 4 1 2 2 1 6 7 5 2 2 2 6 9 9 15 17 16 14 14 12 10 8 8 7 8 8 8 8 8 7 7 7 7 7 7 7 7 7 8 8 8 8 7
10 4 2 3 2 3 2 2 3 2 6 6 3 2 2 4 3 11 6 14 15 14 13 13 12 10 9 7 6 6 6 6 6 6 6 6 7 7 6 6 7 7 7 7 7 8 9 9 8
5 3 3 3 4 2 0 7 7 9 2 1 1 3 3 6 3 3 13 14 14 13 12 12 12 10 8 6 5 4 4 4 5 5 6 6 6 6 7 7 7 7 7 6 7 7 8 9 8
3 2 3 3 2 2 2 9 14 8 4 4 2 3 3 3 6 11 15 15 15 14 12 11 11 9 8 6 4 3 2 3 4 4 4 5 6 6 7 7 6 6 7 7 7 7 8 9 9
2 0 3 2 0 2 3 10 11 5 4 4 2 6 3 1 6 12 14 15 14 15 13 11 11 10 8 6 5 3 2 2 2 3 3 5 6 7 7 7 7 8 9 7 7 8 9 10 9
2 2 2 1 1 2 5 9 9 6 6 4 6 6 1 5 9 13 11 12 12 12 13 13 11 10 8 6 5 4 3 2 1 2 4 4 7 9 9 8 8 9 10 8 6 6 7 9 11
3 2 3 2 3 3 9 11 6 8 5 5 4 3 6 14 10 10 9 10 11 12 12 12 12 10 10 8 7 6 5 4 1 2 4 4 6 7 8 9 9 9 10 8 6 6 7 7 11
1 1 2 3 7 2 10 13 4 3 7 6 7 4 8 15 15 13 10 9 9 10 10 11 10 9 9 7 8 6 5 3 2 1 2 1 3 5 6 6 6 8 11 6 6 9 8 8 9
3 2 4 3 6 4 12 15 11 7 7 10 9 5 11 17 17 16 12 12 12 11 10 8 7 7 8 6 7 8 6 4 3 2 2 2 4 7 8 9 11 11 8 8 8 11 11 10 11
2 3 2 5 8 7 16 13 9 8 8 15 15 14 18 18 17 16 12 10 11 9 8 11 9 9 8 6 6 5 5 5 6 5 4 5 7 10 9 12 13 13 11 10 10 9 9 12 12
3 6 7 3 6 8 18 12 12 16 4 11 12 17 20 16 16 13 12 10 8 8 7 8 12 11 10 10 9 8 7 7 6 5 5 7 10 12 12 13 15 14 12 14 14 13 13 14 15
4 2 3 4 8 3 12 17 11 19 11 2 12 18 18 15 11 9 6 7 6 9 8 8 12 12 13 12 11 10 8 7 5 4 5 6 7 10 12 13 13 14 14 13 13 14 14 13 12
2 2 1 2 7 7 16 8 7 15 11 7 14 18 16 14 12 9 4 5 7 8 7 8 13 10 5 8 9 9 6 4 4 3 2 6 10 12 12 12 12 11 11 12 12 13 14 14 13
2 1 5 8 4 4 11 5 17 9 11 13 15 15 12 11 8 8 4 2 5 6 7 6 6 9 9 9 9 7 5 4 4 1 4 7 9 13 14 11 10 11 13 14 14 14 13 12 12
3 3 1 8 3 3 7 13 15 6 13 16 14 12 11 7 5 5 4 3 5 8 9 7 7 9 9 8 6 5 6 4 3 3 4 7 9 13 15 13 12 15 16 16 17 17 18 18 17
5 5 2 3 4 6 8 7 5 4 12 11 11 11 11 8 6 6 3 2 2 7 9 10 10 10 9 7 7 7 6 5 5 5 6 7 9 12 12 11 13 17 17 18 18 18 16 20 21
3 4 5 6 6 6 3 3 10 4 7 7 8 9 11 10 8 8 4 3 3 6 9 11 11 11 9 8 8 9 8 11 8 6 7 7 7 9 11 10 13 17 18 19 18 19 19 18 19
5 5 5 3 5 4 3 4 9 5 0 2 6 7 10 9 7 7 6 3 3 6 10 12 13 14 12 10 9 10 14 11 8 6 7 9 9 11 14 12 14 16 16 17 18 19 17 16 12
5 3 2 1 5 2 2 5 8 6 2 2 4 7 9 8 8 11 10 5 3 5 7 11 14 16 14 12 14 11 11 7 6 8 9 10 12 14 12 14 16 15 17 17 18 17 17 16 13
3 2 1 3 3 7 1 2 5 4 3 2 3 6 7 9 11 11 13 12 7 5 5 8 10 14 13 13 12 10 10 7 7 8 8 10 15 15 16 15 15 14 15 18 19 19 17 18 15
1 2 3 2 2 2 4 1 1 6 4 3 1 3 6 9 10 10 9 9 8 7 6 8 12 13 12 11 9 9 7 10 9 11 12 15 15 17 17 14 15 17 18 20 21 19 20 17 14
3 6 4 3 4 2 6 3 2 3 3 3 2 4 6 10 8 8 6 6 7 8 8 9 10 9 9 9 10 9 9 9 11 12 14 15 15 15 15 17 21 20 19 20 22 21 20 18 15
6 2 4 3 0 2 5 3 1 3 3 3 4 6 9 9 5 6 6 6 7 8 8 7 6 7 9 10 9 11 11 13 13 14 15 16 18 19 20 20 17 16 19 20 20 19 19 16 13
4 3 3 1 3 3 3 3 3 5 4 6 6 8 10 3 4 5 5 6 6 6 5 4 6 6 8 8 9 10 12 15 14 13 15 16 19 21 19 17 18 19 18 18 18 20 18 18 17
4 3 4 4 4 6 2 2 2 3 5 6 8 11 7 4 5 5 6 5 4 3 2 3 4 4 5 6 8 12 14 10 12 13 14 17 19 18 18 20 21 20 17 15 17 15 15 14 20
3 2 2 5 1 3 2 3 6 5 8 8 11 11 6 6 5 5 4 4 3 3 4 5 4 4 5 8 11 12 13 14 14 14 15 17 18 19 18 20 19 18 14 15 15 13 15 16 17
1 7 0 2 3 6 2 4 5 6 11 13 14 9 5 7 5 4 3 3 3 3 4 4 5 5 6 9 11 12 13 15 14 15 16 17 19 18 17 20 16 15 14 14 13 12 13 14 14
3 2 5 2 2 4 5 6 3 9 8 10 12 6 7 5 5 4 3 2 5 5 6 7 5 4 6 9 11 12 12 13 14 17 17 18 19 18 20 19 15 14 15 13 12 13 11 13 12
2 3 2 0 1 0 2 7 2 6 9 10 10 7 4 2 2 2 3 5 7 8 9 6 6 7 7 8 9 11 12 15 17 16 16 17 18 19 19 17 16 14 13 11 11 11 9 11 14
Wind_Direction
138 139 141 228 83 61 36 30 338 120 158 63 119 125 76 73 27 56 137 158 137 146 155 159 158 154 146 135 125 113 106 97 91 84 78 72 66 62 55 47 46 39 32 24 20 17 12 11 5
141 139 131 105 63 45 58 311 26 120 10 141 116 137 110 95 125 117 131 155 150 151 156 160 162 160 152 141 130 117 102 91 80 71 63 57 52 50 47 36 31 27 24 15 5 358 354 350 347
138 137 277 60 86 53 103 187 136 99 139 157 167 40 92 89 74 147 138 150 152 154 159 164 162 158 156 149 135 120 104 89 76 65 56 48 39 31 31 33 29 29 28 20 9 3 351 343 337
157 153 92 52 64 87 258 153 148 145 128 175 113 97 80 15 115 152 146 147 150 158 162 167 167 165 158 153 140 121 95 84 70 57 48 43 42 37 32 22 21 12 8 2 1 355 348 339 334
55 48 55 83 12 294 238 151 159 164 164 155 117 98 84 47 106 130 147 157 160 161 166 165 170 173 165 156 149 126 111 81 79 76 57 30 17 13 13 14 23 17 357 354 352 354 346 340 336
46 306 100 91 97 326 151 170 166 184 166 133 149 131 92 105 135 153 157 162 165 166 167 173 175 175 175 166 161 162 130 88 69 57 47 27 33 23 13 9 8 8 354 353 359 358 5 5 357
62 33 54 341 101 203 166 176 193 191 170 167 146 151 147 172 178 166 159 164 169 170 173 178 178 181 183 176 178 174 167 148 88 27 31 34 45 42 26 14 10 3 355 347 354 17 21 12 3
117 121 155 200 198 248 161 177 219 194 163 103 173 181 185 191 160 158 159 168 179 182 185 184 182 184 186 189 180 178 174 174 145 37 38 61 55 41 20 12 8 350 341 328 342 344 347 357 353
143 176 223 204 187 203 154 184 182 116 132 172 195 219 213 163 166 164 165 181 190 197 197 194 195 194 195 192 184 185 186 207 209 37 28 97 22 6 1 349 340 332 343 320 328 330 319 328 345
209 215 229 219 206 187 169 189 173 184 149 197 210 217 184 167 177 179 179 186 198 201 200 199 203 207 204 198 196 195 200 224 254 269 283 297 311 326 320 322 315 314 294 288 302 311 308 303 314
153 247 211 240 228 171 166 186 184 194 202 204 208 196 188 185 187 192 193 199 207 205 201 207 206 199 203 211 207 210 219 229 245 254 263 276 299 313 309 307 315 303 285 281 279 279 281 290 298
247 260 231 275 170 174 173 163 206 206 204 199 208 196 187 194 192 193 201 200 210 218 214 216 216 206 211 226 228 228 235 227 230 238 273 299 312 323 320 314 310 305 296 289 282 276 262 269 276
217 292 257 292 138 177 170 187 195 222 216 255 190 181 198 202 186 186 198 212 219 221 228 214 217 223 227 236 238 222 212 216 221 242 290 315 336 339 334 326 322 314 305 299 292 285 277 271 263
216 241 102 30 139 150 179 183 203 233 219 168 174 187 198 199 196 186 184 211 228 219 238 220 215 229 201 185 169 169 174 172 216 258 331 351 350 344 337 332 324 319 317 312 306 295 285 274 267
309 144 132 35 140 136 158 191 225 232 193 198 190 191 196 196 193 199 171 205 214 202 197 198 180 167 173 168 170 182 197 216 223 282 334 332 336 337 334 327 318 318 319 316 308 302 296 285 273
63 55 107 37 132 108 222 235 243 205 185 208 195 190 195 182 182 136 119 139 194 196 187 173 177 180 183 187 195 215 219 226 253 286 313 330 334 337 338 331 324 324 324 319 309 300 289 283 277
41 92 87 88 33 147 210 259 33 301 213 218 196 195 201 185 148 126 105 76 225 208 202 199 200 205 209 213 221 230 243 255 269 285 298 305 319 332 332 323 322 327 323 318 313 306 298 285 276
100 96 79 72 28 54 114 303 337 8 224 214 199 202 209 204 194 159 142 137 173 196 198 206 213 217 218 220 227 241 250 264 256 260 276 304 318 329 332 323 322 323 319 315 314 310 299 291 286
120 93 75 80 25 105 55 359 347 338 108 199 202 214 228 222 199 185 188 178 175 203 213 217 218 218 219 216 231 250 262 250 265 272 295 318 325 330 326 322 322 321 317 317 319 310 308 306 297
88 77 44 179 22 119 161 51 14 10 318 272 235 232 238 234 232 226 224 221 195 198 215 219 219 224 226 233 247 255 266 272 290 313 328 325 327 324 322 316 317 313 315 316 323 313 299 293 286
71 98 232 311 68 74 296 129 15 12 354 280 240 263 252 245 250 246 236 239 244 239 238 234 235 235 240 253 261 278 299 305 325 331 327 322 321 316 314 312 311 307 304 307 315 314 298 290 283
28 341 287 311 241 341 339 257 24 351 17 17 8 247 264 264 254 251 260 262 263 267 271 267 248 247 250 248 272 303 313 315 315 318 318 323 316 315 317 314 312 311 304 298 304 302 300 281 274
54 60 56 58 110 170 25 272 77 340 162 159 203 240 245 251 262 285 283 271 269 272 267 274 265 249 252 284 304 309 310 311 311 316 318 316 315 316 317 316 312 309 304 303 305 306 304 280 267
126 100 69 85 118 39 358 304 140 189 205 196 229 245 247 253 268 270 275 267 272 274 270 268 265 262 287 301 302 307 311 313 320 321 318 317 317 317 317 315 311 305 304 304 305 303 302 281 262
62 25 360 47 26 358 360 269 352 242 261 247 246 239 245 291 264 260 262 255 266 285 286 264 264 276 284 295 303 307 314 323 320 315 313 315 316 317 314 309 308 305 301 303 304 301 291 280 280
56 33 31 356 334 336 312 345 28 272 270 257 262 258 278 274 263 266 268 280 293 305 270 252 247 257 284 293 303 317 323 313 307 308 310 311 314 314 304 311 311 306 302 295 303 296 285 276 288
135 75 70 109 110 275 352 246 256 246 249 248 247 243 252 269 266 264 263 258 241 290 281 248 239 264 292 306 312 316 315 310 306 307 305 307 309 306 304 308 309 307 300 303 307 297 295 297 295
298 130 298 52 315 324 295 278 301 270 243 235 242 242 250 255 252 263 272 264 245 239 234 233 244 249 282 305 312 314 313 308 304 300 301 305 307 307 307 312 313 312 309 310 311 304 303 303 300
145 144 66 93 340 305 304 306 253 280 301 285 267 245 245 258 255 265 271 247 237 239 241 245 254 290 304 307 310 311 312 309 304 303 305 308 310 310 311 315 314 313 313 317 313 308 307 312 303
76 103 120 31 276 170 314 283 14 302 297 283 279 234 229 260 309 289 263 242 248 247 247 254 269 277 302 318 319 310 311 312 310 307 307 314 315 313 313 313 314 313 312 314 314 314 318 310 303